Time,TemperatureF,DewpointF,PressureIn,WindDirection,WindDirectionDegrees,WindSpeedMPH,WindSpeedGustMPH,Humidity,HourlyPrecipIn,Conditions,Clouds,dailyrainin,SoftwareType,DateUTC
2013-07-23 00:00:00,67.0,55.7,29.85,SW,223,0.0,2.0,67,0.18,,,0.19,VWS V15.00,2013-07-23 04:00:00,
2013-07-23 00:01:00,66.3,53.8,29.85,SSW,207,0.0,0.0,64,0.00,,,0.00,VWS V14.01,2013-07-23 04:01:00,
2013-07-23 00:06:00,66.2,53.7,29.85,SSW,207,0.0,0.0,64,0.00,,,0.00,VWS V14.01,2013-07-23 04:06:00,
2013-07-23 00:11:00,66.1,53.6,29.85,SSW,207,0.0,0.0,64,0.00,,,0.00,VWS V14.01,2013-07-23 04:11:00,
2013-07-23 00:16:00,66.0,53.1,29.85,SSW,207,0.0,0.0,63,0.00,,,0.00,VWS V14.01,2013-07-23 04:16:00,
2013-07-23 00:21:00,65.9,53.0,29.86,SSW,207,0.0,0.0,63,0.00,,,0.00,VWS V14.01,2013-07-23 04:21:00,
2013-07-23 00:26:00,65.9,52.5,29.86,SSW,207,0.0,0.0,62,0.00,,,0.00,VWS V14.01,2013-07-23 04:26:00,
2013-07-23 00:30:00,66.6,54.5,29.85,SW,227,0.0,1.0,65,0.04,,,0.19,VWS V15.00,2013-07-23 04:30:00,
2013-07-23 00:31:00,65.9,52.5,29.86,SSW,207,0.0,0.0,62,0.00,,,0.00,VWS V14.01,2013-07-23 04:31:00,
2013-07-23 00:36:00,65.9,52.5,29.86,SSW,207,0.0,0.0,62,0.00,,,0.00,VWS V14.01,2013-07-23 04:36:00,
2013-07-23 00:41:00,65.8,52.4,29.86,SSW,207,0.0,0.0,62,0.00,,,0.00,VWS V14.01,2013-07-23 04:41:00,
2013-07-23 00:46:00,65.8,52.4,29.86,SSW,207,0.0,0.0,62,0.00,,,0.00,VWS V14.01,2013-07-23 04:46:00,
2013-07-23 00:51:00,65.7,52.3,29.86,SSW,207,0.0,0.0,62,0.00,,,0.00,VWS V14.01,2013-07-23 04:51:00,
2013-07-23 00:56:00,65.6,52.2,29.86,SSW,207,0.0,0.0,62,0.00,,,0.00,VWS V14.01,2013-07-23 04:56:00,
2013-07-23 01:00:00,66.3,53.8,29.85,SSW,207,0.0,2.0,64,0.00,,,0.19,VWS V15.00,2013-07-23 05:00:00,
2013-07-23 01:01:00,65.5,52.2,29.85,SSW,207,0.0,0.0,62,0.00,,,0.00,VWS V14.01,2013-07-23 05:01:00,
2013-07-23 01:06:00,65.4,52.1,29.85,SSW,207,0.0,0.0,62,0.00,,,0.00,VWS V14.01,2013-07-23 05:06:00,
2013-07-23 01:11:00,65.4,52.1,29.85,SSW,207,0.0,0.0,62,0.00,,,0.00,VWS V14.01,2013-07-23 05:11:00,
2013-07-23 01:16:00,65.4,52.1,29.85,SSW,207,0.0,0.0,62,0.00,,,0.00,VWS V14.01,2013-07-23 05:16:00,
2013-07-23 01:21:00,65.3,52.0,29.84,SSW,207,0.0,1.0,62,0.00,,,0.00,VWS V14.01,2013-07-23 05:21:00,
2013-07-23 01:26:00,65.3,51.5,29.84,SSW,207,0.0,1.0,61,0.00,,,0.00,VWS V14.01,2013-07-23 05:26:00,
2013-07-23 01:30:00,65.9,52.5,29.86,SSW,207,0.0,0.0,62,0.00,,,0.00,VWS V15.00,2013-07-23 05:30:00,
2013-07-23 01:31:00,65.4,51.6,29.84,SSW,207,0.0,0.0,61,0.00,,,0.00,VWS V14.01,2013-07-23 05:31:00,
2013-07-23 01:36:00,65.3,51.5,29.84,SSW,207,0.0,0.0,61,0.00,,,0.00,VWS V14.01,2013-07-23 05:36:00,
2013-07-23 01:41:00,65.3,51.5,29.84,SSW,207,0.0,1.0,61,0.00,,,0.00,VWS V14.01,2013-07-23 05:41:00,
2013-07-23 01:46:00,65.3,51.5,29.84,WSW,247,0.0,2.0,61,0.00,,,0.00,VWS V14.01,2013-07-23 05:46:00,
2013-07-23 01:51:00,65.3,51.5,29.84,WSW,247,0.0,2.0,61,0.00,,,0.00,VWS V14.01,2013-07-23 05:51:00,
2013-07-23 01:56:00,65.4,51.6,29.84,WSW,247,0.0,2.0,61,0.00,,,0.00,VWS V14.01,2013-07-23 05:56:00,
2013-07-23 02:00:00,65.5,52.2,29.85,SSW,207,0.0,0.0,62,0.00,,,0.00,VWS V15.00,2013-07-23 06:00:00,
2013-07-23 02:01:00,65.3,51.5,29.83,WSW,247,0.0,0.0,61,0.00,,,0.00,VWS V14.01,2013-07-23 06:01:00,
2013-07-23 02:06:00,65.2,51.4,29.83,WSW,247,0.0,1.0,61,0.00,,,0.00,VWS V14.01,2013-07-23 06:06:00,
2013-07-23 02:11:00,65.2,51.4,29.83,WSW,247,0.0,1.0,61,0.00,,,0.00,VWS V14.01,2013-07-23 06:11:00,
2013-07-23 02:16:00,65.1,51.3,29.83,WSW,247,0.0,1.0,61,0.00,,,0.00,VWS V14.01,2013-07-23 06:16:00,
2013-07-23 02:21:00,65.1,51.3,29.83,WSW,247,0.0,2.0,61,0.00,,,0.00,VWS V14.01,2013-07-23 06:21:00,
2013-07-23 02:26:00,65.0,51.2,29.83,WSW,247,0.0,2.0,61,0.00,,,0.00,VWS V14.01,2013-07-23 06:26:00,
2013-07-23 02:30:00,65.4,51.6,29.85,SSW,207,0.0,1.0,61,0.00,,,0.00,VWS V15.00,2013-07-23 06:30:00,
2013-07-23 02:31:00,65.0,51.2,29.83,WSW,247,0.0,0.0,61,0.00,,,0.00,VWS V14.01,2013-07-23 06:31:00,
2013-07-23 02:36:00,65.0,51.2,29.83,WSW,247,0.0,1.0,61,0.00,,,0.00,VWS V14.01,2013-07-23 06:36:00,
2013-07-23 02:41:00,65.0,51.2,29.83,WSW,247,0.0,1.0,61,0.00,,,0.00,VWS V14.01,2013-07-23 06:41:00,
2013-07-23 02:46:00,65.0,51.2,29.83,WSW,247,0.0,1.0,61,0.00,,,0.00,VWS V14.01,2013-07-23 06:46:00,
2013-07-23 02:51:00,65.1,51.3,29.83,WSW,247,0.0,1.0,61,0.00,,,0.00,VWS V14.01,2013-07-23 06:51:00,
2013-07-23 02:56:00,65.2,51.4,29.82,WSW,247,0.0,3.0,61,0.00,,,0.00,VWS V14.01,2013-07-23 06:56:00,
2013-07-23 03:00:00,65.3,51.5,29.84,WSW,247,0.0,2.0,61,0.00,,,0.00,VWS V15.00,2013-07-23 07:00:00,
2013-07-23 03:01:00,65.4,52.1,29.82,West,271,0.0,1.0,62,0.00,,,0.00,VWS V14.01,2013-07-23 07:01:00,
2013-07-23 03:06:00,65.6,52.7,29.81,WNW,303,0.0,1.0,63,0.00,,,0.00,VWS V14.01,2013-07-23 07:06:00,
2013-07-23 03:11:00,65.8,53.3,29.82,WNW,303,0.0,1.0,64,0.00,,,0.00,VWS V14.01,2013-07-23 07:11:00,
2013-07-23 03:16:00,65.8,53.3,29.81,WNW,303,0.0,1.0,64,0.00,,,0.00,VWS V14.01,2013-07-23 07:16:00,
2013-07-23 03:21:00,65.9,53.8,29.81,WNW,299,0.0,1.0,65,0.00,,,0.00,VWS V14.01,2013-07-23 07:21:00,
2013-07-23 03:26:00,66.0,53.9,29.81,SW,234,0.0,2.0,65,0.00,,,0.00,VWS V14.01,2013-07-23 07:26:00,
2013-07-23 03:30:00,65.0,51.2,29.83,WSW,247,0.0,2.0,61,0.00,,,0.00,VWS V15.00,2013-07-23 07:30:00,
2013-07-23 03:31:00,66.3,54.6,29.81,West,275,1.0,1.0,66,0.00,,,0.00,VWS V14.01,2013-07-23 07:31:00,
2013-07-23 03:36:00,66.7,55.8,29.81,WSW,251,5.0,5.0,68,0.00,,,0.00,VWS V14.01,2013-07-23 07:36:00,
2013-07-23 03:41:00,66.9,56.4,29.82,WNW,287,0.0,6.0,69,0.00,,,0.00,VWS V14.01,2013-07-23 07:41:00,
2013-07-23 03:46:00,67.0,57.7,29.82,WSW,256,0.0,6.0,72,0.00,,,0.00,VWS V14.01,2013-07-23 07:46:00,
2013-07-23 03:51:00,67.2,59.0,29.82,WSW,252,2.0,9.0,75,0.00,,,0.00,VWS V14.01,2013-07-23 07:51:00,
2013-07-23 03:56:00,67.7,59.5,29.82,WSW,240,0.0,9.0,75,0.00,,,0.00,VWS V14.01,2013-07-23 07:56:00,
2013-07-23 04:00:00,65.3,52.0,29.82,West,271,0.0,3.0,62,0.00,,,0.00,VWS V15.00,2013-07-23 08:00:00,
2013-07-23 04:01:00,67.8,59.6,29.82,WSW,245,0.0,1.0,75,0.00,,,0.00,VWS V14.01,2013-07-23 08:01:00,
2013-07-23 04:06:00,67.8,59.6,29.82,West,266,1.0,3.0,75,0.00,,,0.00,VWS V14.01,2013-07-23 08:06:00,
2013-07-23 04:11:00,67.9,59.3,29.82,West,266,1.0,3.0,74,0.00,,,0.00,VWS V14.01,2013-07-23 08:11:00,
2013-07-23 04:16:00,68.0,60.2,29.82,WSW,240,4.0,6.0,76,0.00,,,0.00,VWS V14.01,2013-07-23 08:16:00,
2013-07-23 04:21:00,68.2,60.3,29.82,SW,223,0.0,8.0,76,0.00,,,0.00,VWS V14.01,2013-07-23 08:21:00,
2013-07-23 04:26:00,68.2,60.3,29.82,WSW,254,0.0,8.0,76,0.00,,,0.00,VWS V14.01,2013-07-23 08:26:00,
2013-07-23 04:30:00,66.2,54.5,29.81,West,267,0.0,2.0,66,0.00,,,0.00,VWS V15.00,2013-07-23 08:30:00,
2013-07-23 04:31:00,68.2,60.3,29.82,WSW,254,1.0,5.0,76,0.00,,,0.00,VWS V14.01,2013-07-23 08:31:00,
2013-07-23 04:36:00,68.2,60.3,29.81,West,264,2.0,5.0,76,0.00,,,0.00,VWS V14.01,2013-07-23 08:36:00,
2013-07-23 04:41:00,68.2,60.0,29.82,WSW,249,3.0,6.0,75,0.00,,,0.00,VWS V14.01,2013-07-23 08:41:00,
2013-07-23 04:45:00,68.1,59.5,29.81,WNW,297,0.0,8.0,74,0.00,,,0.00,VWS V14.01,2013-07-23 08:45:00,
2013-07-23 04:50:00,68.1,59.5,29.81,WNW,285,0.0,8.0,74,0.00,,,0.00,VWS V14.01,2013-07-23 08:50:00,
2013-07-23 04:55:00,68.0,59.0,29.81,West,281,2.0,8.0,73,0.00,,,0.00,VWS V14.01,2013-07-23 08:55:00,
2013-07-23 05:00:00,67.9,58.5,29.81,WNW,289,1.0,3.0,72,0.00,,,0.00,VWS V14.01,2013-07-23 09:00:00,
2013-07-23 05:05:00,67.9,58.5,29.82,West,262,0.0,7.0,72,0.00,,,0.00,VWS V14.01,2013-07-23 09:05:00,
2013-07-23 05:10:00,67.9,58.2,29.82,West,278,4.0,7.0,71,0.00,,,0.00,VWS V14.01,2013-07-23 09:10:00,
2013-07-23 05:15:00,67.9,58.5,29.82,SW,236,7.0,7.0,72,0.00,,,0.00,VWS V14.01,2013-07-23 09:15:00,
2013-07-23 05:20:00,68.1,58.7,29.82,West,280,0.0,8.0,72,0.01,,,0.01,VWS V14.01,2013-07-23 09:20:00,
2013-07-23 05:25:00,68.2,59.2,29.82,West,272,0.0,12.0,73,0.01,,,0.01,VWS V14.01,2013-07-23 09:25:00,
2013-07-23 05:30:00,68.2,59.6,29.82,West,275,3.0,8.0,74,0.01,,,0.01,VWS V14.01,2013-07-23 09:30:00,
2013-07-23 05:35:00,68.3,59.3,29.83,WSW,258,7.0,8.0,73,0.01,,,0.01,VWS V14.01,2013-07-23 09:35:00,
2013-07-23 05:40:00,68.4,59.8,29.82,West,279,0.0,8.0,74,0.01,,,0.01,VWS V14.01,2013-07-23 09:40:00,
2013-07-23 05:45:00,68.4,60.2,29.82,WNW,292,0.0,8.0,75,0.01,,,0.01,VWS V14.01,2013-07-23 09:45:00,
2013-07-23 05:50:00,68.5,61.0,29.83,WNW,285,0.0,8.0,77,0.01,,,0.01,VWS V14.01,2013-07-23 09:50:00,
2013-07-23 05:55:00,68.6,61.1,29.83,WSW,254,1.0,8.0,77,0.01,,,0.01,VWS V14.01,2013-07-23 09:55:00,
2013-07-23 06:00:00,68.7,61.6,29.83,SW,236,2.0,4.0,78,0.01,,,0.01,VWS V14.01,2013-07-23 10:00:00,
2013-07-23 06:05:00,68.8,62.0,29.82,West,263,0.0,6.0,79,0.01,,,0.01,VWS V14.01,2013-07-23 10:05:00,
2013-07-23 06:10:00,68.7,61.6,29.82,West,275,0.0,6.0,78,0.01,,,0.01,VWS V14.01,2013-07-23 10:10:00,
2013-07-23 06:15:00,68.6,61.8,29.83,WSW,254,1.0,6.0,79,0.01,,,0.01,VWS V14.01,2013-07-23 10:15:00,
2013-07-23 06:20:00,68.6,61.8,29.83,WSW,242,0.0,6.0,79,0.01,,,0.01,VWS V14.01,2013-07-23 10:20:00,
2013-07-23 06:25:00,68.7,61.9,29.83,West,262,0.0,6.0,79,0.01,,,0.01,VWS V14.01,2013-07-23 10:25:00,
2013-07-23 06:30:00,68.8,62.0,29.83,WNW,290,0.0,1.0,79,0.00,,,0.01,VWS V14.01,2013-07-23 10:30:00,
2013-07-23 06:35:00,68.7,62.3,29.83,WNW,287,0.0,3.0,80,0.00,,,0.01,VWS V14.01,2013-07-23 10:35:00,
2013-07-23 06:40:00,68.8,62.4,29.83,WNW,287,0.0,3.0,80,0.00,,,0.01,VWS V14.01,2013-07-23 10:40:00,
2013-07-23 06:45:00,68.9,62.5,29.83,West,261,4.0,6.0,80,0.00,,,0.01,VWS V14.01,2013-07-23 10:45:00,
2013-07-23 06:50:00,68.9,62.5,29.83,WNW,284,0.0,6.0,80,0.00,,,0.01,VWS V14.01,2013-07-23 10:50:00,
2013-07-23 06:55:00,68.8,62.0,29.83,WNW,285,0.0,6.0,79,0.00,,,0.01,VWS V14.01,2013-07-23 10:55:00,
2013-07-23 07:00:00,68.7,61.9,29.83,West,271,0.0,1.0,79,0.00,,,0.01,VWS V14.01,2013-07-23 11:00:00,
2013-07-23 07:05:00,68.7,61.9,29.83,West,271,0.0,2.0,79,0.00,,,0.01,VWS V14.01,2013-07-23 11:05:00,
2013-07-23 07:10:00,68.7,61.9,29.83,West,261,2.0,4.0,79,0.00,,,0.01,VWS V14.01,2013-07-23 11:10:00,
2013-07-23 07:15:00,68.7,61.9,29.83,West,267,2.0,4.0,79,0.00,,,0.01,VWS V14.01,2013-07-23 11:15:00,
2013-07-23 07:20:00,68.8,62.0,29.83,West,267,0.0,4.0,79,0.00,,,0.01,VWS V14.01,2013-07-23 11:20:00,
2013-07-23 07:26:00,68.8,61.7,29.83,West,267,0.0,4.0,78,0.00,,,0.01,VWS V14.01,2013-07-23 11:26:00,
2013-07-23 07:30:00,68.7,62.3,29.83,WNW,290,0.0,6.0,80,0.01,,,0.01,VWS V15.00,2013-07-23 11:30:00,
2013-07-23 07:31:00,68.8,61.7,29.83,SW,223,0.0,0.0,78,0.00,,,0.01,VWS V14.01,2013-07-23 11:31:00,
2013-07-23 07:35:00,68.9,61.8,29.83,West,269,0.0,3.0,78,0.00,,,0.01,VWS V14.01,2013-07-23 11:35:00,
2013-07-23 07:40:00,68.9,61.8,29.83,West,274,2.0,4.0,78,0.00,,,0.01,VWS V14.01,2013-07-23 11:40:00,
2013-07-23 07:45:00,69.0,61.9,29.84,West,273,0.0,4.0,78,0.00,,,0.01,VWS V14.01,2013-07-23 11:45:00,
2013-07-23 07:50:00,69.0,61.9,29.84,West,269,0.0,4.0,78,0.00,,,0.01,VWS V14.01,2013-07-23 11:50:00,
2013-07-23 07:55:00,69.0,62.2,29.83,West,273,0.0,5.0,79,0.00,,,0.01,VWS V14.01,2013-07-23 11:55:00,
2013-07-23 08:00:00,69.1,62.0,29.84,West,268,0.0,3.0,78,0.00,,,0.01,VWS V14.01,2013-07-23 12:00:00,
2013-07-23 08:05:00,69.2,62.1,29.84,West,268,1.0,3.0,78,0.00,,,0.01,VWS V14.01,2013-07-23 12:05:00,
2013-07-23 08:10:00,69.2,62.1,29.84,West,268,0.0,3.0,78,0.00,,,0.01,VWS V14.01,2013-07-23 12:10:00,
2013-07-23 08:15:00,69.2,62.1,29.84,WSW,258,0.0,3.0,78,0.00,,,0.01,VWS V14.01,2013-07-23 12:15:00,
2013-07-23 08:20:00,69.3,62.2,29.84,West,268,0.0,6.0,78,0.00,,,0.01,VWS V14.01,2013-07-23 12:20:00,
2013-07-23 08:25:00,69.2,62.1,29.84,West,269,2.0,6.0,78,0.00,,,0.01,VWS V14.01,2013-07-23 12:25:00,
2013-07-23 08:30:00,69.1,61.6,29.84,West,272,0.0,1.0,77,0.00,,,0.01,VWS V14.01,2013-07-23 12:30:00,
2013-07-23 08:36:00,69.0,61.5,29.84,West,272,0.0,1.0,77,0.00,,,0.01,VWS V14.01,2013-07-23 12:36:00,
2013-07-23 08:40:00,69.0,61.1,29.84,West,273,2.0,5.0,76,0.00,,,0.01,VWS V14.01,2013-07-23 12:40:00,
2013-07-23 08:45:00,68.8,60.6,29.84,WSW,242,2.0,5.0,75,0.00,,,0.01,VWS V14.01,2013-07-23 12:45:00,
2013-07-23 08:50:00,68.8,60.9,29.84,West,277,0.0,5.0,76,0.00,,,0.01,VWS V14.01,2013-07-23 12:50:00,
2013-07-23 08:55:00,68.7,60.5,29.84,West,275,0.0,7.0,75,0.00,,,0.01,VWS V14.01,2013-07-23 12:55:00,
2013-07-23 09:00:00,68.5,59.9,29.84,WSW,250,0.0,4.0,74,0.00,,,0.01,VWS V14.01,2013-07-23 13:00:00,
2013-07-23 09:05:00,68.4,59.4,29.84,WSW,245,2.0,4.0,73,0.00,,,0.01,VWS V14.01,2013-07-23 13:05:00,
2013-07-23 09:10:00,68.3,58.9,29.84,WSW,251,0.0,4.0,72,0.01,,,0.02,VWS V14.01,2013-07-23 13:10:00,
2013-07-23 09:15:00,68.3,58.9,29.84,WSW,251,0.0,4.0,72,0.01,,,0.02,VWS V14.01,2013-07-23 13:15:00,
2013-07-23 09:20:00,68.3,58.9,29.85,WSW,254,0.0,5.0,72,0.01,,,0.02,VWS V14.01,2013-07-23 13:20:00,
2013-07-23 09:25:00,68.3,58.2,29.85,WSW,254,0.0,5.0,70,0.01,,,0.02,VWS V14.01,2013-07-23 13:25:00,
2013-07-23 09:30:00,68.3,58.5,29.85,WSW,254,0.0,0.0,71,0.01,,,0.02,VWS V14.01,2013-07-23 13:30:00,
2013-07-23 09:35:00,68.5,58.7,29.85,WSW,246,0.0,2.0,71,0.01,,,0.02,VWS V14.01,2013-07-23 13:35:00,
2013-07-23 09:40:00,68.6,59.2,29.84,WSW,256,3.0,3.0,72,0.01,,,0.02,VWS V14.01,2013-07-23 13:40:00,
2013-07-23 09:45:00,68.8,59.8,29.84,West,261,0.0,4.0,73,0.01,,,0.02,VWS V14.01,2013-07-23 13:45:00,
2013-07-23 09:50:00,68.8,60.2,29.85,West,265,0.0,4.0,74,0.01,,,0.02,VWS V14.01,2013-07-23 13:50:00,
2013-07-23 09:55:00,68.8,59.8,29.85,West,265,0.0,4.0,73,0.01,,,0.02,VWS V14.01,2013-07-23 13:55:00,
2013-07-23 10:00:00,68.8,59.4,29.85,WNW,284,0.0,0.0,72,0.01,,,0.02,VWS V14.01,2013-07-23 14:00:00,
2013-07-23 10:05:00,68.9,58.7,29.85,WNW,284,0.0,0.0,70,0.01,,,0.02,VWS V14.01,2013-07-23 14:05:00,
2013-07-23 10:10:00,68.9,58.7,29.85,WNW,285,0.0,1.0,70,0.01,,,0.02,VWS V14.01,2013-07-23 14:10:00,
2013-07-23 10:15:00,69.0,59.2,29.86,WNW,285,0.0,1.0,71,0.01,,,0.02,VWS V14.01,2013-07-23 14:15:00,
2013-07-23 10:20:00,69.2,59.8,29.86,WNW,285,0.0,1.0,72,0.01,,,0.02,VWS V14.01,2013-07-23 14:20:00,
2013-07-23 10:25:00,69.7,59.5,29.86,WNW,285,0.0,1.0,70,0.01,,,0.02,VWS V14.01,2013-07-23 14:25:00,
2013-07-23 10:30:00,70.1,61.4,29.86,WNW,285,0.0,1.0,74,0.00,,,0.02,VWS V14.01,2013-07-23 14:30:00,
2013-07-23 10:35:00,70.4,62.5,29.86,WNW,285,0.0,2.0,76,0.00,,,0.02,VWS V14.01,2013-07-23 14:35:00,
2013-07-23 10:40:00,70.6,63.8,29.86,North,355,0.0,3.0,79,0.00,,,0.02,VWS V14.01,2013-07-23 14:40:00,
2013-07-23 10:45:00,71.0,63.8,29.86,WSW,248,0.0,4.0,78,0.00,,,0.02,VWS V14.01,2013-07-23 14:45:00,
2013-07-23 10:50:00,71.4,64.9,29.86,West,263,3.0,4.0,80,0.00,,,0.02,VWS V14.01,2013-07-23 14:50:00,
2013-07-23 10:55:00,71.6,65.1,29.86,West,263,0.0,4.0,80,0.00,,,0.02,VWS V14.01,2013-07-23 14:55:00,
2013-07-23 11:00:00,72.1,65.6,29.86,West,263,0.0,0.0,80,0.00,,,0.02,VWS V14.01,2013-07-23 15:00:00,
2013-07-23 11:05:00,72.6,66.1,29.86,West,263,1.0,2.0,80,0.00,,,0.02,VWS V14.01,2013-07-23 15:05:00,
2013-07-23 11:10:00,73.1,66.6,29.86,West,269,2.0,4.0,80,0.00,,,0.02,VWS V14.01,2013-07-23 15:10:00,
2013-07-23 11:15:00,73.7,67.2,29.86,West,270,0.0,4.0,80,0.00,,,0.02,VWS V14.01,2013-07-23 15:15:00,
2013-07-23 11:20:00,74.0,66.3,29.87,WSW,253,0.0,9.0,77,0.00,,,0.02,VWS V14.01,2013-07-23 15:20:00,
2013-07-23 11:25:00,74.1,66.1,29.87,WSW,254,0.0,9.0,76,0.00,,,0.02,VWS V14.01,2013-07-23 15:25:00,
2013-07-23 11:30:00,74.4,66.7,29.87,SW,228,0.0,1.0,77,0.00,,,0.02,VWS V14.01,2013-07-23 15:30:00,
2013-07-23 11:35:00,74.7,67.0,29.87,WSW,249,0.0,5.0,77,0.00,,,0.02,VWS V14.01,2013-07-23 15:35:00,
2013-07-23 11:40:00,75.1,67.4,29.87,West,267,1.0,7.0,77,0.00,,,0.02,VWS V14.01,2013-07-23 15:40:00,
2013-07-23 11:45:00,75.1,67.4,29.87,WSW,247,0.0,7.0,77,0.00,,,0.02,VWS V14.01,2013-07-23 15:45:00,
2013-07-23 11:50:00,74.7,67.0,29.88,West,269,0.0,7.0,77,0.00,,,0.02,VWS V14.01,2013-07-23 15:50:00,
2013-07-23 11:55:00,74.0,66.7,29.88,WNW,290,0.0,7.0,78,0.00,,,0.02,VWS V14.01,2013-07-23 15:55:00,
2013-07-23 12:00:00,73.5,66.6,29.88,West,274,1.0,3.0,79,0.00,,,0.02,VWS V14.01,2013-07-23 16:00:00,
2013-07-23 12:05:00,72.8,66.3,29.88,West,266,0.0,6.0,80,0.00,,,0.02,VWS V14.01,2013-07-23 16:05:00,
2013-07-23 12:10:00,72.5,65.6,29.88,West,266,1.0,6.0,79,0.00,,,0.02,VWS V14.01,2013-07-23 16:10:00,
2013-07-23 12:15:00,72.4,65.9,29.88,SW,230,0.0,6.0,80,0.00,,,0.02,VWS V14.01,2013-07-23 16:15:00,
2013-07-23 12:20:00,72.6,65.7,29.88,West,259,5.0,6.0,79,0.00,,,0.02,VWS V14.01,2013-07-23 16:20:00,
2013-07-23 12:25:00,73.1,66.2,29.88,WSW,251,0.0,6.0,79,0.00,,,0.02,VWS V14.01,2013-07-23 16:25:00,
2013-07-23 12:30:00,73.6,66.3,29.88,WNW,284,0.0,0.0,78,0.00,,,0.02,VWS V14.01,2013-07-23 16:30:00,
2013-07-23 12:35:00,74.4,66.0,29.88,NE,41,0.0,3.0,75,0.00,,,0.02,VWS V14.01,2013-07-23 16:35:00,
2013-07-23 12:40:00,75.2,66.7,29.87,WSW,254,0.0,3.0,75,0.00,,,0.02,VWS V14.01,2013-07-23 16:40:00,
2013-07-23 12:45:00,76.0,67.9,29.87,West,271,0.0,4.0,76,0.00,,,0.02,VWS V14.01,2013-07-23 16:45:00,
2013-07-23 12:50:00,77.1,67.4,29.87,SW,236,2.0,5.0,72,0.00,,,0.02,VWS V14.01,2013-07-23 16:50:00,
2013-07-23 12:55:00,77.6,68.3,29.88,WSW,241,0.0,5.0,73,0.00,,,0.02,VWS V14.01,2013-07-23 16:55:00,
2013-07-23 13:00:00,78.0,68.7,29.87,West,263,0.0,2.0,73,0.00,,,0.02,VWS V14.01,2013-07-23 17:00:00,
2013-07-23 13:05:00,78.4,67.8,29.87,SW,233,0.0,4.0,70,0.00,,,0.02,VWS V14.01,2013-07-23 17:05:00,
2013-07-23 13:10:00,78.7,68.5,29.87,SW,235,0.0,4.0,71,0.00,,,0.02,VWS V14.01,2013-07-23 17:10:00,
2013-07-23 13:15:00,79.0,68.0,29.86,West,261,0.0,4.0,69,0.00,,,0.02,VWS V14.01,2013-07-23 17:15:00,
2013-07-23 13:20:00,78.8,66.9,29.86,West,262,0.0,10.0,67,0.00,,,0.02,VWS V14.01,2013-07-23 17:20:00,
2013-07-23 13:25:00,79.1,67.6,29.85,SSW,211,1.0,10.0,68,0.00,,,0.02,VWS V14.01,2013-07-23 17:25:00,
2013-07-23 13:30:00,79.6,67.7,29.85,WNW,290,1.0,5.0,67,0.00,,,0.02,VWS V14.01,2013-07-23 17:30:00,
2013-07-23 13:35:00,79.9,68.0,29.85,WNW,288,0.0,6.0,67,0.00,,,0.02,VWS V14.01,2013-07-23 17:35:00,
2013-07-23 13:40:00,80.0,66.7,29.85,NNW,348,0.0,6.0,64,0.00,,,0.02,VWS V14.01,2013-07-23 17:40:00,
2013-07-23 13:45:00,80.3,66.6,29.84,West,266,0.0,6.0,63,0.00,,,0.02,VWS V14.01,2013-07-23 17:45:00,
2013-07-23 13:50:00,80.8,67.9,29.84,WSW,243,0.0,6.0,65,0.00,,,0.02,VWS V14.01,2013-07-23 17:50:00,
2013-07-23 13:55:00,81.2,67.9,29.83,North,360,0.0,8.0,64,0.00,,,0.02,VWS V14.01,2013-07-23 17:55:00,
2013-07-23 14:00:00,81.5,68.2,29.83,SSW,195,2.0,6.0,64,0.00,,,0.02,VWS V14.01,2013-07-23 18:00:00,
2013-07-23 14:05:00,81.4,68.1,29.83,West,269,1.0,6.0,64,0.00,,,0.02,VWS V14.01,2013-07-23 18:05:00,
2013-07-23 14:11:00,81.5,67.7,29.83,SW,228,0.0,6.0,63,0.00,,,0.02,VWS V14.01,2013-07-23 18:11:00,
2013-07-23 14:15:00,81.5,69.1,29.83,WNW,301,2.0,7.0,66,0.00,,,0.02,VWS V14.01,2013-07-23 18:15:00,
2013-07-23 14:21:00,81.7,68.3,29.82,WNW,283,0.0,7.0,64,0.00,,,0.02,VWS V14.01,2013-07-23 18:21:00,
2013-07-23 14:26:00,82.1,69.6,29.82,West,259,0.0,7.0,66,0.00,,,0.02,VWS V14.01,2013-07-23 18:26:00,
2013-07-23 14:30:00,79.5,68.9,29.86,SW,225,5.0,10.0,70,0.00,,,0.02,VWS V15.00,2013-07-23 18:30:00,
2013-07-23 14:31:00,82.4,69.5,29.82,West,260,0.0,2.0,65,0.00,,,0.02,VWS V14.01,2013-07-23 18:31:00,
2013-07-23 14:36:00,82.6,69.2,29.82,WSW,248,0.0,5.0,64,0.00,,,0.02,VWS V14.01,2013-07-23 18:36:00,
2013-07-23 14:41:00,82.9,67.6,29.82,WSW,246,2.0,5.0,60,0.00,,,0.02,VWS V14.01,2013-07-23 18:41:00,
2013-07-23 14:46:00,82.7,67.9,29.82,WNW,294,1.0,7.0,61,0.00,,,0.02,VWS V14.01,2013-07-23 18:46:00,
2013-07-23 14:51:00,82.9,69.0,29.82,West,264,0.0,7.0,63,0.00,,,0.02,VWS V14.01,2013-07-23 18:51:00,
2013-07-23 14:56:00,83.4,69.0,29.81,West,276,0.0,7.0,62,0.00,,,0.02,VWS V14.01,2013-07-23 18:56:00,
2013-07-23 15:00:00,81.5,68.2,29.83,NNW,332,0.0,8.0,64,0.00,,,0.02,VWS V15.00,2013-07-23 19:00:00,
2013-07-23 15:01:00,83.4,66.1,29.82,WSW,250,0.0,5.0,56,0.00,,,0.02,VWS V14.01,2013-07-23 19:01:00,
2013-07-23 15:06:00,82.9,68.1,29.81,SW,230,3.0,6.0,61,0.00,,,0.02,VWS V14.01,2013-07-23 19:06:00,
2013-07-23 15:11:00,82.3,68.5,29.81,West,275,0.0,13.0,63,0.00,,,0.02,VWS V14.01,2013-07-23 19:11:00,
2013-07-23 15:16:00,82.5,67.7,29.81,WSW,253,0.0,13.0,61,0.00,,,0.02,VWS V14.01,2013-07-23 19:16:00,
2013-07-23 15:21:00,83.2,69.8,29.80,WSW,253,0.0,13.0,64,0.00,,,0.02,VWS V14.01,2013-07-23 19:21:00,
2013-07-23 15:26:00,84.1,68.7,29.81,West,269,2.0,13.0,60,0.00,,,0.02,VWS V14.01,2013-07-23 19:26:00,
2013-07-23 15:30:00,82.4,69.9,29.82,SW,219,1.0,7.0,66,0.00,,,0.02,VWS V15.00,2013-07-23 19:30:00,
2013-07-23 15:31:00,84.8,71.7,29.81,WNW,286,1.0,1.0,65,0.00,,,0.02,VWS V14.01,2013-07-23 19:31:00,
2013-07-23 15:36:00,84.9,67.5,29.80,WSW,248,0.0,5.0,56,0.00,,,0.02,VWS V14.01,2013-07-23 19:36:00,
2013-07-23 15:42:00,84.8,67.9,29.80,NNE,19,1.0,5.0,57,0.00,,,0.02,VWS V14.01,2013-07-23 19:42:00,
2013-07-23 15:47:00,84.8,67.9,29.80,West,274,0.0,5.0,57,0.00,,,0.02,VWS V14.01,2013-07-23 19:47:00,
2013-07-23 15:52:00,84.5,67.1,29.79,NNE,18,0.0,5.0,56,0.00,,,0.02,VWS V14.01,2013-07-23 19:52:00,
2013-07-23 15:57:00,84.6,68.7,29.79,West,269,1.0,5.0,59,0.00,,,0.02,VWS V14.01,2013-07-23 19:57:00,
2013-07-23 16:00:00,83.6,67.8,29.82,WSW,242,5.0,7.0,59,0.00,,,0.02,VWS V15.00,2013-07-23 20:00:00,
2013-07-23 16:02:00,84.4,69.0,29.79,SW,229,0.0,2.0,60,0.00,,,0.02,VWS V14.01,2013-07-23 20:02:00,
2013-07-23 16:07:00,84.1,68.7,29.79,West,262,0.0,2.0,60,0.00,,,0.02,VWS V14.01,2013-07-23 20:07:00,
2013-07-23 16:12:00,84.0,68.6,29.79,West,278,0.0,2.0,60,0.00,,,0.02,VWS V14.01,2013-07-23 20:12:00,
2013-07-23 16:17:00,84.0,68.6,29.79,West,278,0.0,2.0,60,0.00,,,0.02,VWS V14.01,2013-07-23 20:17:00,
2013-07-23 16:22:00,84.2,69.3,29.79,WSW,246,0.0,4.0,61,0.00,,,0.02,VWS V14.01,2013-07-23 20:22:00,
2013-07-23 16:27:00,84.2,68.8,29.78,WSW,253,0.0,5.0,60,0.00,,,0.02,VWS V14.01,2013-07-23 20:27:00,
2013-07-23 16:30:00,84.4,68.5,29.80,WNW,286,0.0,13.0,59,0.00,,,0.02,VWS V15.00,2013-07-23 20:30:00,
2013-07-23 16:32:00,84.4,69.0,29.78,WSW,248,1.0,4.0,60,0.00,,,0.02,VWS V14.01,2013-07-23 20:32:00,
2013-07-23 16:37:00,84.5,69.1,29.78,WNW,298,0.0,4.0,60,0.00,,,0.02,VWS V14.01,2013-07-23 20:37:00,
2013-07-23 16:42:00,84.2,67.8,29.78,WSW,257,0.0,5.0,58,0.00,,,0.02,VWS V14.01,2013-07-23 20:42:00,
2013-07-23 16:47:00,83.9,69.5,29.77,NNW,344,1.0,5.0,62,0.00,,,0.02,VWS V14.01,2013-07-23 20:47:00,
2013-07-23 16:53:00,84.4,68.5,29.77,WSW,250,0.0,5.0,59,0.00,,,0.02,VWS V14.01,2013-07-23 20:53:00,
2013-07-23 16:58:00,84.5,68.1,29.77,ENE,76,0.0,5.0,58,0.00,,,0.02,VWS V14.01,2013-07-23 20:58:00,
2013-07-23 17:00:00,84.5,69.1,29.79,WSW,250,0.0,6.0,60,0.00,,,0.02,VWS V15.00,2013-07-23 21:00:00,
2013-07-23 17:03:00,84.2,69.8,29.77,North,5,0.0,3.0,62,0.00,,,0.02,VWS V14.01,2013-07-23 21:03:00,
2013-07-23 17:08:00,83.9,69.5,29.77,WSW,247,0.0,3.0,62,0.00,,,0.02,VWS V14.01,2013-07-23 21:08:00,
2013-07-23 17:13:00,83.9,71.3,29.77,West,274,1.0,3.0,66,0.00,,,0.02,VWS V14.01,2013-07-23 21:13:00,
2013-07-23 17:18:00,84.0,70.1,29.77,West,274,0.0,3.0,63,0.00,,,0.02,VWS V14.01,2013-07-23 21:18:00,
2013-07-23 17:23:00,83.8,68.4,29.77,North,350,0.0,3.0,60,0.00,,,0.02,VWS V14.01,2013-07-23 21:23:00,
2013-07-23 17:28:00,83.7,68.8,29.77,North,350,0.0,3.0,61,0.00,,,0.02,VWS V14.01,2013-07-23 21:28:00,
2013-07-23 17:30:00,84.3,68.4,29.78,WSW,252,0.0,5.0,59,0.00,,,0.02,VWS V15.00,2013-07-23 21:30:00,
2013-07-23 17:34:00,83.3,70.3,29.77,SW,236,0.0,2.0,65,0.00,,,0.02,VWS V14.01,2013-07-23 21:34:00,
2013-07-23 17:39:00,83.0,70.0,29.77,SW,236,0.0,2.0,65,0.00,,,0.02,VWS V14.01,2013-07-23 21:39:00,
2013-07-23 17:44:00,82.9,69.9,29.77,SW,236,0.0,2.0,65,0.00,,,0.02,VWS V14.01,2013-07-23 21:44:00,
2013-07-23 17:49:00,83.1,70.1,29.77,WNW,284,0.0,2.0,65,0.00,,,0.02,VWS V14.01,2013-07-23 21:49:00,
2013-07-23 17:54:00,83.4,69.9,29.77,WNW,284,0.0,2.0,64,0.00,,,0.02,VWS V14.01,2013-07-23 21:54:00,
2013-07-23 17:59:00,83.2,69.8,29.76,WSW,250,0.0,7.0,64,0.00,,,0.02,VWS V14.01,2013-07-23 21:59:00,
2013-07-23 18:00:00,84.5,69.1,29.77,SSW,198,1.0,5.0,60,0.00,,,0.02,VWS V15.00,2013-07-23 22:00:00,
2013-07-23 18:04:00,83.0,69.1,29.76,WSW,250,0.0,1.0,63,0.00,,,0.02,VWS V14.01,2013-07-23 22:04:00,
2013-07-23 18:09:00,82.7,70.2,29.76,North,360,0.0,2.0,66,0.00,,,0.02,VWS V14.01,2013-07-23 22:09:00,
2013-07-23 18:14:00,82.6,69.2,29.76,NNE,33,0.0,2.0,64,0.00,,,0.02,VWS V14.01,2013-07-23 22:14:00,
2013-07-23 18:19:00,82.2,68.4,29.76,NNE,33,0.0,2.0,63,0.00,,,0.02,VWS V14.01,2013-07-23 22:19:00,
2013-07-23 18:24:00,81.9,70.3,29.76,NNE,33,0.0,2.0,68,0.00,,,0.02,VWS V14.01,2013-07-23 22:24:00,
2013-07-23 18:29:00,81.7,70.1,29.77,NNE,33,0.0,0.0,68,0.00,,,0.02,VWS V14.01,2013-07-23 22:29:00,
2013-07-23 18:30:00,83.7,68.8,29.77,North,350,0.0,3.0,61,0.00,,,0.02,VWS V15.00,2013-07-23 22:30:00,
2013-07-23 18:35:00,81.6,70.4,29.76,NNE,33,0.0,0.0,69,0.00,,,0.02,VWS V14.01,2013-07-23 22:35:00,
2013-07-23 18:40:00,81.4,71.1,29.77,NNE,33,0.0,0.0,71,0.00,,,0.02,VWS V14.01,2013-07-23 22:40:00,
2013-07-23 18:45:00,81.1,70.4,29.77,NNE,33,0.0,0.0,70,0.00,,,0.02,VWS V14.01,2013-07-23 22:45:00,
2013-07-23 18:50:00,80.6,69.9,29.77,NNE,33,0.0,1.0,70,0.00,,,0.02,VWS V14.01,2013-07-23 22:50:00,
2013-07-23 18:55:00,80.2,69.9,29.76,NNE,33,0.0,1.0,71,0.00,,,0.02,VWS V14.01,2013-07-23 22:55:00,
2013-07-23 19:00:00,79.9,70.1,29.77,NNE,33,0.0,0.0,72,0.00,,,0.02,VWS V14.01,2013-07-23 23:00:00,
2013-07-23 19:05:00,79.7,70.7,29.77,NNE,33,0.0,0.0,74,0.00,,,0.02,VWS V14.01,2013-07-23 23:05:00,
2013-07-23 19:10:00,79.4,70.4,29.77,NNE,33,0.0,0.0,74,0.00,,,0.02,VWS V14.01,2013-07-23 23:10:00,
2013-07-23 19:15:00,78.9,70.7,29.77,NNE,33,0.0,0.0,76,0.00,,,0.02,VWS V14.01,2013-07-23 23:15:00,
2013-07-23 19:20:00,78.5,69.9,29.77,NNE,33,0.0,1.0,75,0.00,,,0.02,VWS V14.01,2013-07-23 23:20:00,
2013-07-23 19:26:00,78.2,70.4,29.77,NNE,33,0.0,1.0,77,0.00,,,0.02,VWS V14.01,2013-07-23 23:26:00,
2013-07-23 19:30:00,81.8,70.2,29.77,NNE,33,0.0,2.0,68,0.00,,,0.02,VWS V15.00,2013-07-23 23:30:00,
2013-07-23 19:31:00,78.0,69.8,29.77,NNE,33,0.0,0.0,76,0.00,,,0.02,VWS V14.01,2013-07-23 23:31:00,
2013-07-23 19:36:00,77.8,70.0,29.76,NNE,33,0.0,0.0,77,0.00,,,0.02,VWS V14.01,2013-07-23 23:36:00,
2013-07-23 19:41:00,77.3,69.9,29.76,NNE,33,0.0,0.0,78,0.00,,,0.02,VWS V14.01,2013-07-23 23:41:00,
2013-07-23 19:46:00,76.9,69.9,29.76,NNE,33,0.0,0.0,79,0.00,,,0.02,VWS V14.01,2013-07-23 23:46:00,
2013-07-23 19:51:00,76.7,69.7,29.76,NNE,33,0.0,0.0,79,0.00,,,0.02,VWS V14.01,2013-07-23 23:51:00,
2013-07-23 19:56:00,76.5,69.9,29.77,NNE,33,0.0,0.0,80,0.00,,,0.02,VWS V14.01,2013-07-23 23:56:00,
2013-07-23 20:00:00,79.9,70.1,29.77,NNE,33,0.0,1.0,72,0.00,,,0.02,VWS V15.00,2013-07-24 00:00:00,
2013-07-23 20:01:00,76.4,69.8,29.77,NNE,33,0.0,0.0,80,0.00,,,0.02,VWS V14.01,2013-07-24 00:01:00,
2013-07-23 20:06:00,76.2,69.9,29.77,NNE,33,0.0,0.0,81,0.00,,,0.02,VWS V14.01,2013-07-24 00:06:00,
2013-07-23 20:11:00,76.1,69.5,29.76,NNE,33,0.0,0.0,80,0.00,,,0.02,VWS V14.01,2013-07-24 00:11:00,
2013-07-23 20:16:00,75.8,69.6,29.77,NNE,33,0.0,0.0,81,0.00,,,0.02,VWS V14.01,2013-07-24 00:16:00,
2013-07-23 20:21:00,75.5,68.9,29.77,NNE,33,0.0,0.0,80,0.00,,,0.02,VWS V14.01,2013-07-24 00:21:00,
2013-07-23 20:26:00,75.3,69.1,29.77,NNE,33,0.0,0.0,81,0.00,,,0.02,VWS V14.01,2013-07-24 00:26:00,
2013-07-23 20:30:00,78.1,70.3,29.77,NNE,33,0.0,1.0,77,0.00,,,0.02,VWS V15.00,2013-07-24 00:30:00,
2013-07-23 20:31:00,75.1,68.9,29.77,NNE,33,0.0,0.0,81,0.00,,,0.02,VWS V14.01,2013-07-24 00:31:00,
2013-07-23 20:36:00,74.9,68.7,29.77,NNE,33,0.0,0.0,81,0.00,,,0.02,VWS V14.01,2013-07-24 00:36:00,
2013-07-23 20:42:00,74.7,68.5,29.78,NNE,33,0.0,0.0,81,0.00,,,0.02,VWS V14.01,2013-07-24 00:42:00,
2013-07-23 20:47:00,74.3,68.1,29.78,NNE,33,0.0,0.0,81,0.00,,,0.02,VWS V14.01,2013-07-24 00:47:00,
2013-07-23 20:52:00,74.2,68.0,29.78,NNE,33,0.0,0.0,81,0.00,,,0.02,VWS V14.01,2013-07-24 00:52:00,
2013-07-23 20:57:00,73.9,67.7,29.78,NNE,33,0.0,0.0,81,0.00,,,0.02,VWS V14.01,2013-07-24 00:57:00,
2013-07-23 21:00:00,76.4,69.8,29.77,NNE,33,0.0,0.0,80,0.00,,,0.02,VWS V15.00,2013-07-24 01:00:00,
2013-07-23 21:02:00,73.6,67.4,29.78,NNE,33,0.0,0.0,81,0.00,,,0.02,VWS V14.01,2013-07-24 01:02:00,
2013-07-23 21:07:00,73.4,67.2,29.78,NNE,33,0.0,0.0,81,0.00,,,0.02,VWS V14.01,2013-07-24 01:07:00,
2013-07-23 21:12:00,73.2,67.0,29.78,NNE,33,0.0,0.0,81,0.00,,,0.02,VWS V14.01,2013-07-24 01:12:00,
2013-07-23 21:17:00,73.0,66.8,29.78,NNE,33,0.0,0.0,81,0.00,,,0.02,VWS V14.01,2013-07-24 01:17:00,
2013-07-23 21:23:00,72.7,66.2,29.78,NNE,33,0.0,0.0,80,0.00,,,0.02,VWS V14.01,2013-07-24 01:23:00,
2013-07-23 21:28:00,72.5,66.0,29.79,NNE,33,0.0,0.0,80,0.00,,,0.02,VWS V14.01,2013-07-24 01:28:00,
2013-07-23 21:30:00,75.2,69.0,29.77,NNE,33,0.0,0.0,81,0.00,,,0.02,VWS V15.00,2013-07-24 01:30:00,
2013-07-23 21:33:00,72.3,65.8,29.79,NNE,33,0.0,0.0,80,0.00,,,0.02,VWS V14.01,2013-07-24 01:33:00,
2013-07-23 21:38:00,72.1,65.6,29.79,NNE,33,0.0,0.0,80,0.00,,,0.02,VWS V14.01,2013-07-24 01:38:00,
2013-07-23 21:43:00,71.9,65.4,29.79,NNE,33,0.0,0.0,80,0.00,,,0.02,VWS V14.01,2013-07-24 01:43:00,
2013-07-23 21:48:00,71.7,64.8,29.79,NNE,33,0.0,0.0,79,0.00,,,0.02,VWS V14.01,2013-07-24 01:48:00,
2013-07-23 21:53:00,71.5,64.3,29.80,NNE,33,0.0,0.0,78,0.00,,,0.02,VWS V14.01,2013-07-24 01:53:00,
2013-07-23 21:58:00,71.3,64.5,29.80,NNE,33,0.0,0.0,79,0.00,,,0.02,VWS V14.01,2013-07-24 01:58:00,
2013-07-23 22:00:00,73.9,67.7,29.78,NNE,33,0.0,0.0,81,0.00,,,0.02,VWS V15.00,2013-07-24 02:00:00,
2013-07-23 22:03:00,71.1,64.3,29.81,NNE,33,0.0,0.0,79,0.00,,,0.02,VWS V14.01,2013-07-24 02:03:00,
2013-07-23 22:08:00,71.0,64.2,29.81,NNE,33,0.0,0.0,79,0.00,,,0.02,VWS V14.01,2013-07-24 02:08:00,
2013-07-23 22:13:00,70.8,63.6,29.81,NNE,33,0.0,0.0,78,0.00,,,0.02,VWS V14.01,2013-07-24 02:13:00,
2013-07-23 22:19:00,70.7,63.5,29.81,NNE,33,0.0,0.0,78,0.00,,,0.02,VWS V14.01,2013-07-24 02:19:00,
2013-07-23 22:24:00,70.6,63.4,29.81,NNE,33,0.0,0.0,78,0.00,,,0.02,VWS V14.01,2013-07-24 02:24:00,
2013-07-23 22:29:00,70.4,63.6,29.81,NNE,33,0.0,0.0,79,0.00,,,0.02,VWS V14.01,2013-07-24 02:29:00,
2013-07-23 22:30:00,72.4,65.9,29.79,NNE,33,0.0,0.0,80,0.00,,,0.02,VWS V15.00,2013-07-24 02:30:00,
2013-07-23 22:34:00,70.3,64.2,29.81,NNE,33,0.0,1.0,81,0.00,,,0.02,VWS V14.01,2013-07-24 02:34:00,
2013-07-23 22:39:00,70.4,64.3,29.81,NNE,33,0.0,1.0,81,0.00,,,0.02,VWS V14.01,2013-07-24 02:39:00,
2013-07-23 22:44:00,70.5,64.0,29.82,NNW,346,0.0,3.0,80,0.00,,,0.02,VWS V14.01,2013-07-24 02:44:00,
2013-07-23 22:49:00,70.5,64.0,29.82,NNW,346,0.0,3.0,80,0.00,,,0.02,VWS V14.01,2013-07-24 02:49:00,
2013-07-23 22:54:00,70.4,64.3,29.82,NNW,346,0.0,3.0,81,0.00,,,0.02,VWS V14.01,2013-07-24 02:54:00,
2013-07-23 22:59:00,70.3,64.2,29.82,NNW,338,0.0,0.0,81,0.00,,,0.02,VWS V14.01,2013-07-24 02:59:00,
2013-07-23 23:00:00,71.2,64.4,29.80,NNE,33,0.0,0.0,79,0.00,,,0.02,VWS V15.00,2013-07-24 03:00:00,
2013-07-23 23:04:00,70.3,64.2,29.82,NNW,335,0.0,1.0,81,0.00,,,0.02,VWS V14.01,2013-07-24 03:04:00,
2013-07-23 23:09:00,70.3,64.2,29.82,NNW,335,0.0,1.0,81,0.00,,,0.02,VWS V14.01,2013-07-24 03:09:00,
2013-07-23 23:14:00,70.2,63.8,29.82,NNW,335,0.0,1.0,80,0.00,,,0.02,VWS V14.01,2013-07-24 03:14:00,
2013-07-23 23:19:00,70.1,63.7,29.81,NNW,335,0.0,1.0,80,0.00,,,0.02,VWS V14.01,2013-07-24 03:19:00,
2013-07-23 23:24:00,69.9,63.5,29.81,NNW,335,0.0,1.0,80,0.00,,,0.02,VWS V14.01,2013-07-24 03:24:00,
2013-07-23 23:29:00,69.7,63.3,29.82,NNW,335,0.0,0.0,80,0.00,,,0.02,VWS V14.01,2013-07-24 03:29:00,
2013-07-23 23:30:00,70.4,63.6,29.81,NNE,33,0.0,0.0,79,0.00,,,0.02,VWS V15.00,2013-07-24 03:30:00,
2013-07-23 23:34:00,69.4,63.0,29.82,NNW,335,0.0,0.0,80,0.00,,,0.02,VWS V14.01,2013-07-24 03:34:00,
2013-07-23 23:39:00,69.3,62.9,29.81,NNW,335,0.0,0.0,80,0.00,,,0.02,VWS V14.01,2013-07-24 03:39:00,
2013-07-23 23:44:00,69.2,62.4,29.81,NNW,335,0.0,0.0,79,0.00,,,0.02,VWS V14.01,2013-07-24 03:44:00,
2013-07-23 23:50:00,69.0,62.2,29.81,NNW,335,0.0,0.0,79,0.00,,,0.02,VWS V14.01,2013-07-24 03:50:00,
2013-07-23 23:55:00,68.8,62.0,29.81,NNW,335,0.0,0.0,79,0.00,,,0.02,VWS V14.01,2013-07-24 03:55:00,